EHI
0 0 0 0 0 0 0 0 0 0 0 0 0 0 0 0 0 0 0 0 0 0 0 0 0 0 0 0 0 0 0 0 0 0 0 0 0 0
0 0 0 0 0 0 0 0 0 0 0 0 0 0 0 0 0 0 0 0 0 0 0 0 0 0 0 0 0 0 0 0 0 0 0 0 0 0
0 0 0 0 0 0 0 0 0 0 0 0 0 0 0 0 0 0 0 0 0 0 0 0 0 0 0 0 0 0 0 0 0 0 0 0 0 0
0 0 0 0 0 0 0 0 0 0 0 0 0 0 0 0 0 0 0 0 0 0 0 0 0 0 0 0 0 0 0 0 0 0 0 0 0 0
0 0 0 0 0 0 0 0 0 0 0 0 0 0 0 0 0 0 0 0 0 0 0 0 0 0 0 0 0 0 0 0 0 0 0 0 0 0
0 0 0 0 0 0 0 0 0 0 0 0 0 0 0 0 0 0 0 0 0 0 0 0 0 0 0 0 0 0 0 0 0 0 0 0 0 0
0 0 0 0 0 0 0 0 0 0 0 0 0 0 0 0 0 0 0 0 0 0 0 0 0 0 0 0 0 0 0 0 0 0 0 0 0 0
0 0 0 0 0 0 0 0 0 0 0 0 0 0 0 0 0 0 0 0 0 0 0 0 0 0 0 0 0 0 0 0 0 0 0 0 0 0
0 0 0 0 0 0 0 0 0 0 0 0 0 0 0 0 0 0 0 0 0 0 0 0 0 0 0 0 0 0 0 0 0 0 0 0 0 0
0 0 0 0 0 0 0 0 0 0 0 0 0 0 0 0 0 0 0 0 0 0 0 0 0 0 0 0 0 0 0 0 0 0 0 0 0 0
0 0 0 0 0 0 0 0 0 0 0 0 0 0 0 0 0 0 0 0 0 0 0 0 0 0 0 0 0 0 0 0 0 0 0 0 0 0
0 0 0 0 0 0 0 0 0 0 0 0 0 0 0 0 0 0 0 0 0 0 0 0 0 0 0 0 0 0 0 0 0 0 0 0 0 0
0 0 0 0 0 0 0 0 0 0 0 0 0 0 0 0 0 0 0 0 0 0 0 0 0 0 0 0 0 0 0 0 0 0 0 0 0 0
0 0 0 0 0 0 0 0 0 0 0 0 0 0 0 0 0 0 0 0 0 0 0 0 0 0 0 0 0 0 0 0 0 0 0 0 0 0
0 0 0 0 0 0 0 0 0 0 0 0 0 0 0 0 0 0 0 0 0 0 0 0 0 0 0 0 0 0 0 0 0 0 0 0 0 0
0 0 0 0 0 0 0 0 0 0 0 0 0 0 0 0 0 0 0 0 0 0 0 0 0 0 0 0 0 0 0 0 0 0 0 0 0 0
0 0 0 0 0 0 0 0 0 0 0 0 0 0 0 0 0 0 0 0 0 0 0 0 0 0 0 0 0 0 0 0 0 0 0 0 0 0
0 0 0 0 0 0 0 0 0 0 0 0 0 0 0 0 0 0 0 0 0 0 0 0 0 0 0 0 0 0 0 0 0 0 0 0 0 0
0 0 0 0 0 0 0 0 0 0 0 0 0 0 0 0 0 0 0 0 0 0 0 0 0 0 0 0 0 0 0 0 0 0 0 0 0 0
0 0 0 0 0 0 0 0 0 0 0 0 0 0 0 0 0 0 0 0 0 0 0 0 0 0 0 0 0 0 0 0 0 0 0 0 0 0
0 0 0 0 0 0 0 0 0 0 0 0 0 0 0 0 0 0 0 0 0 0 0 0 0 0 0 0 0 0 0 0 0 0 0 0 0 0
0 0 0 0 0 0 0 0 0 0 0 0 0 0 0 0 0 0 0 0 0 0 0 0 0 0 0 0 0 0 0 0 0 0 0 0 0 0
0 0 0 0 0 0 0 0 0 0 0 0 0 0 0 0 0 0 0 0 0 0 0 0 0 0 0 0 0 0 0 0 0 0 0 0 0 0
Wind_Speed
3 2 2 2 2 2 2 2 3 4 4 2 1 1 2 2 3 3 4 6 8 9 10 11 11 10 10 11 11 13 13 13 13 14 15 15 17 18
2 2 2 2 1 1 1 2 2 4 4 1 1 2 2 3 4 4 4 7 7 8 8 10 10 10 9 9 10 10 11 11 13 14 16 17 17 18
3 2 3 3 2 1 1 1 2 3 5 3 1 2 2 3 4 4 4 4 4 8 9 9 9 9 9 9 9 9 10 10 11 12 13 15 16 17
4 3 3 3 3 3 2 2 2 2 3 5 2 2 3 3 4 5 5 4 4 8 9 10 10 10 9 9 9 10 10 10 11 12 13 14 15 15
4 4 4 3 3 3 3 2 2 2 2 3 3 2 3 3 4 4 5 4 5 7 9 10 10 10 10 10 10 10 10 10 10 11 12 13 14 15
4 4 4 3 3 3 2 3 3 3 3 3 3 3 3 3 3 4 5 4 5 5 7 8 10 11 11 11 10 10 10 11 11 12 12 13 13 14
5 5 4 5 6 4 3 3 3 2 2 3 3 3 3 3 4 4 6 5 5 3 4 5 6 5 6 9 10 11 11 12 12 13 12 12 13 13
4 5 5 5 7 8 8 7 6 4 3 3 3 4 5 4 4 5 5 5 5 2 4 7 5 6 5 5 10 13 13 13 13 12 13 13 13 14
4 4 4 5 6 4 6 7 7 8 6 4 4 5 6 6 6 6 6 6 7 4 5 7 5 6 5 7 13 14 13 13 12 12 12 13 14 14
4 4 4 5 5 5 4 4 4 4 5 4 3 5 5 5 5 6 7 7 6 4 3 6 5 5 6 6 12 13 12 11 12 13 13 14 14 14
5 5 5 4 8 8 4 4 4 5 7 8 8 8 10 11 9 5 5 5 6 4 2 4 4 6 6 5 6 10 11 12 13 14 14 14 14 14
4 5 8 8 9 9 4 4 5 5 5 6 7 8 7 7 9 5 4 5 5 5 2 3 4 4 5 3 3 4 6 11 13 13 14 14 14 8
3 4 5 10 11 11 8 4 6 6 4 5 5 5 4 4 4 4 4 4 5 5 4 3 4 4 5 6 5 5 5 5 6 8 11 13 13 10
3 3 4 10 11 10 7 8 10 8 4 4 5 5 5 5 5 5 6 5 6 8 7 6 5 6 7 8 7 5 4 5 6 6 6 9 10 12
3 6 8 9 9 7 8 11 8 4 4 4 5 5 5 5 6 6 6 6 7 7 7 6 6 6 7 8 7 7 7 6 5 5 5 5 5 5
3 5 8 8 6 7 7 6 4 4 5 5 5 6 5 5 5 5 6 6 6 6 5 6 7 7 7 8 8 8 7 6 5 5 5 6 6 6
3 2 2 3 4 4 4 4 4 5 5 5 5 6 6 6 6 5 5 5 5 7 7 5 5 6 8 8 8 8 7 6 6 6 5 6 6 5
4 2 3 3 4 5 5 5 5 5 5 5 5 6 6 7 7 6 5 5 6 7 7 7 6 6 4 5 9 8 6 6 6 5 5 6 7 5
2 2 3 3 4 4 5 5 5 5 5 5 5 6 6 6 6 7 6 6 6 7 6 6 5 4 6 8 6 6 5 6 6 6 5 5 6 6
2 2 3 3 4 4 5 5 5 6 5 5 5 5 6 6 7 7 7 7 7 7 7 5 4 4 5 7 7 7 8 7 5 6 5 5 5 7
3 3 3 3 4 4 5 5 5 6 6 6 6 6 6 6 7 7 7 11 9 7 8 7 7 10 6 4 6 6 5 6 7 5 5 4 4 4
3 3 3 4 4 4 5 5 5 6 6 6 6 6 6 6 7 9 8 8 7 7 8 7 7 5 3 4 6 7 7 6 6 8 7 6 4 3
3 4 4 4 4 4 4 5 7 6 6 6 6 6 6 7 7 7 8 8 8 8 8 7 6 4 4 4 5 5 7 7 5 5 5 6 7 7
Wind_Direction
280 273 266 268 266 264 259 245 249 263 263 240 243 326 296 291 311 293 286 289 281 274 271 273 272 269 265 262 261 260 257 254 251 250 249 249 248 249
312 309 299 299 300 299 287 278 263 261 267 271 265 309 323 325 323 303 293 306 295 288 286 280 272 268 268 266 264 261 257 254 253 253 251 251 250 249
346 349 336 332 329 334 328 322 303 282 272 284 297 318 326 325 321 313 302 289 293 296 286 288 283 272 271 270 267 264 259 257 256 257 258 257 254 251
1 7 2 6 3 355 356 345 321 308 282 285 298 311 305 316 309 309 311 308 295 299 294 288 289 278 270 270 270 268 263 261 260 260 260 260 258 256
8 12 7 14 8 359 358 347 329 326 307 293 297 300 296 311 310 306 304 298 302 301 298 289 287 288 284 274 271 269 267 263 260 259 259 259 258 258
14 17 14 12 359 352 356 343 331 324 318 307 301 301 297 302 308 308 310 306 303 301 297 297 296 288 285 283 276 269 265 263 262 261 260 259 258 257
19 15 13 17 10 5 358 340 332 321 315 308 305 308 308 317 316 311 304 308 296 291 299 294 293 282 277 278 275 273 272 269 266 263 262 260 258 257
14 5 6 11 9 7 2 357 349 329 312 303 300 304 305 304 304 305 303 309 298 305 308 296 286 279 275 262 278 282 277 273 269 269 267 264 263 261
6 360 358 356 358 343 348 354 354 352 340 311 301 300 302 304 301 296 292 288 283 294 301 289 284 276 276 283 289 284 280 275 271 271 271 268 264 262
360 352 346 340 341 338 340 343 341 341 335 332 303 297 301 301 289 287 288 289 281 279 271 276 286 280 287 281 288 285 284 281 278 275 274 272 267 263
354 353 347 336 339 345 345 334 330 328 340 343 335 330 327 327 323 311 307 303 297 295 277 273 288 293 280 269 281 289 288 285 282 279 276 274 271 268
348 348 353 350 346 352 351 339 332 325 329 334 335 333 328 328 333 323 302 296 297 294 285 287 287 306 299 271 270 280 279 282 283 281 279 276 275 268
346 346 343 350 353 356 357 350 332 333 336 331 325 323 321 320 319 311 297 284 283 276 290 301 290 289 278 289 288 274 271 277 276 273 275 277 275 270
336 329 333 347 353 356 356 348 348 350 338 329 329 329 327 322 314 307 296 281 267 271 280 279 277 286 289 287 287 283 274 270 271 271 266 271 269 270
329 333 341 351 355 357 357 357 357 348 332 331 328 321 310 302 302 302 300 293 284 276 275 268 267 275 274 278 281 283 292 283 261 262 268 265 266 263
334 341 349 355 358 354 355 354 348 337 335 326 317 311 309 308 309 309 309 313 306 297 277 267 265 265 271 273 272 277 276 273 277 277 275 271 264 255
335 350 346 344 347 344 341 340 339 338 336 325 320 319 319 319 314 312 306 307 299 301 307 302 279 264 257 263 270 267 273 277 273 279 286 285 275 260
353 345 338 339 338 336 335 333 331 332 330 324 320 318 319 317 315 314 309 303 300 299 300 305 312 311 299 267 240 258 268 273 280 281 279 282 283 278
357 334 327 328 328 328 326 323 321 321 320 318 317 316 315 313 313 312 312 306 301 297 296 296 300 303 306 304 287 241 264 284 285 284 275 276 277 279
335 322 318 317 319 318 315 313 312 314 314 314 312 310 309 308 309 309 308 302 300 299 298 294 285 280 276 283 289 287 274 272 276 283 290 294 283 279
314 310 308 307 307 306 306 304 304 304 305 306 305 304 304 304 303 303 304 306 304 298 299 296 286 294 286 279 282 287 286 278 280 279 286 293 296 294
304 303 303 301 301 300 300 300 301 301 302 302 302 303 301 298 299 302 304 304 300 295 293 291 293 297 282 276 286 293 301 307 309 308 293 275 268 268
298 297 295 296 295 295 294 295 297 297 297 297 299 300 300 299 298 298 299 299 299 297 298 299 302 295 283 279 286 294 300 308 317 323 319 318 306 292